EW4543 Weather Reports


Display with metric or nautical units.
time (UTC)temp
F
wind
direction
speed
MPH
gust
MPH
rain 1hr
in
rain 24hr
in
rain mn
in
humidity
%
barometer
mb
20260831014528 80 169 0.0 0.0 0.01 0.14 0.13 30 1006.6
20260831013028 82 169 0.0 1.0 0.01 0.14 0.13 29 1006.5
20260831011526 82 202 0.0 2.0 0.02 0.14 0.13 27 1006.6
20260831010024 83 256 0.0 1.0 0.02 0.14 0.13 27 1006.6
20260831004524 83 233 0.0 1.0 0.01 0.13 0.12 28 1006.6
20260831003022 83 214 1.0 3.0 0.01 0.13 0.12 27 1006.7
20260831001521 84 126 0.0 3.0 0.00 0.12 0.11 26 1006.8
20260831000034 84 297 0.0 3.0 0.01 0.12 0.11 27 1006.8
20260830234520 84 305 1.0 4.0 0.02 0.14 0.11 26 1006.8
20260830233021 84 236 1.0 3.0 0.04 0.14 0.11 27 1007.0
20260830231517 84 224 0.0 4.0 0.05 0.14 0.11 27 1007.1
20260830230016 85 135 1.0 3.0 0.04 0.13 0.10 26 1007.1
20260830224515 84 247 1.0 6.0 0.04 0.14 0.09 26 1007.2
20260830223013 87 180 2.0 5.0 0.02 0.12 0.07 24 1007.3
20260830221511 87 146 1.0 4.0 0.01 0.11 0.06 25 1007.5
20260830220012 86 128 0.0 5.0 0.01 0.11 0.06 25 1007.7
20260830214646 87 110 1.0 5.0 0.00 0.12 0.05 24 1007.8
20260830213011 85 210 1.0 6.0 0.00 0.12 0.05 26 1007.9
20260830211514 87 255 1.0 5.0 0.00 0.12 0.05 26 1008.1
20260830210007 86 306 2.0 6.0 0.01 0.12 0.05 26 1008.1
20260830204506 86 248 1.0 4.0 0.01 0.17 0.05 26 1008.1
20260830203005 86 200 1.0 4.0 0.03 0.17 0.05 26 1008.2
20260830201600 86 222 1.0 4.0 0.03 0.17 0.05 26 1008.3
20260830200058 86 132 1.0 4.0 0.02 0.16 0.04 27 1008.3
20260830194557 84 225 0.0 5.0 0.02 0.16 0.04 27 1008.3
20260830193056 84 209 0.0 7.0 0.01 0.14 0.02 28 1008.4
20260830191553 83 143 2.0 4.0 0.01 0.14 0.02 28 1008.5
20260830190053 83 44 1.0 3.0 0.02 0.14 0.02 29 1008.7
20260830184549 83 233 0.0 4.0 0.02 0.14 0.02 30 1008.7
20260830183049 83 304 1.0 4.0 0.01 0.13 0.01 29 1008.8
20260830181548 83 230 1.0 3.0 0.01 0.13 0.01 29 1008.9
20260830180048 81 158 0.0 3.0 0.00 0.12 0.00 31 1008.9
20260830174542 79 233 0.0 2.0 0.00 0.12 0.00 32 1008.9
20260830173041 79 294 0.0 3.0 0.00 0.12 0.00 33 1008.9
20260830171538 79 138 1.0 3.0 0.00 0.12 0.00 33 1008.8
20260830170035 78 173 0.0 1.0 0.00 0.12 0.00 36 1008.8
20260830164553 76 138 0.0 2.0 0.00 0.12 0.00 41 1008.8
20260830163028 73 115 0.0 1.0 0.00 0.12 0.00 42 1008.8
20260830161521 69 141 0.0 1.0 0.00 0.12 0.00 47 1008.7
20260830160018 66 209 0.0 0.0 0.00 0.12 0.00 53 1008.7
20260830154513 63 209 0.0 0.0 0.00 0.12 0.00 57 1008.8
20260830153009 60 209 0.0 1.0 0.00 0.12 0.00 60 1008.8
20260830151504 57 209 0.0 0.0 0.00 0.12 0.00 64 1008.9
20260830150003 55 209 0.0 0.0 0.00 0.12 0.00 67 1008.8
20260830144501 54 209 0.0 0.0 0.00 0.12 0.00 67 1008.8
20260830143114 53 209 0.0 0.0 0.00 0.12 0.00 69 1008.7
20260830143001 53 209 0.0 0.0 0.00 0.12 0.00 69 1008.7
20260830141558 53 209 0.0 0.0 0.00 0.12 0.00 67 1008.6
20260830140056 54 209 0.0 0.0 0.00 0.12 0.00 66 1008.4
20260830134557 55 209 0.0 0.0 0.00 0.12 0.00 63 1008.3
20260830133055 56 209 0.0 0.0 0.00 0.12 0.00 62 1008.2
20260830131554 56 210 0.0 0.0 0.00 0.12 0.00 63 1008.0
20260830130104 57 209 0.0 0.0 0.00 0.12 0.00 62 1008.0
20260830124552 55 212 0.0 0.0 0.00 0.12 0.00 63 1008.0
20260830123108 54 210 0.0 0.0 0.00 0.12 0.00 66 1007.9
20260830121550 54 210 0.0 0.0 0.00 0.12 0.00 66 1007.9
20260830120053 54 210 0.0 0.0 0.00 0.12 0.00 64 1008.0
20260830114601 54 210 0.0 0.0 0.00 0.12 0.00 63 1008.1
20260830113046 55 210 0.0 0.0 0.00 0.12 0.00 63 1008.1
20260830111545 55 210 0.0 0.0 0.00 0.12 0.00 63 1008.2
20260830110045 55 210 0.0 0.0 0.00 0.12 0.00 64 1008.2
20260830104550 54 210 0.0 0.0 0.00 0.12 0.00 63 1008.1
20260830103043 54 210 0.0 0.0 0.00 0.12 0.00 63 1008.1
20260830101543 54 210 0.0 0.0 0.00 0.12 0.00 63 1008.1
20260830100040 54 210 0.0 0.0 0.00 0.12 0.00 62 1008.1
20260830094540 55 210 0.0 0.0 0.00 0.12 0.00 61 1008.1
20260830093036 55 210 0.0 0.0 0.00 0.12 0.00 60 1008.1
20260830091537 56 210 0.0 0.0 0.00 0.12 0.00 58 1008.1
20260830090031 56 210 0.0 0.0 0.00 0.12 0.00 57 1008.2
20260830084530 56 210 0.0 0.0 0.00 0.12 0.00 56 1008.2
20260830083029 57 221 0.0 0.0 0.00 0.12 0.00 55 1008.3
20260830081540 57 221 0.0 0.0 0.00 0.12 0.00 55 1008.3
20260830080025 56 221 0.0 0.0 0.00 0.12 0.00 56 1008.4
20260830074527 56 221 0.0 0.0 0.00 0.12 0.00 55 1008.5
20260830073027 56 221 0.0 0.0 0.00 0.12 0.00 56 1008.5
20260830071520 57 221 0.0 0.0 0.00 0.12 0.00 54 1008.6
20260830070018 57 221 0.0 0.0 0.00 0.12 0.00 54 1008.6
20260830064517 58 221 0.0 0.0 0.00 0.12 0.12 53 1008.5
20260830063025 58 221 0.0 0.0 0.00 0.12 0.12 51 1008.6
20260830061516 59 221 0.0 0.0 0.00 0.12 0.12 50 1008.5
20260830060021 59 221 0.0 0.0 0.00 0.12 0.12 49 1008.6
20260830054527 60 221 0.0 0.0 0.00 0.12 0.12 48 1008.6
20260830053015 60 221 0.0 0.0 0.00 0.12 0.12 47 1008.8
20260830051514 61 221 0.0 0.0 0.00 0.12 0.12 47 1008.8
20260830050015 62 221 0.0 0.0 0.00 0.12 0.12 48 1008.7
20260830044513 62 221 0.0 1.0 0.00 0.12 0.12 47 1008.7
20260830043013 63 221 0.0 0.0 0.00 0.12 0.12 44 1008.7
20260830041511 64 221 0.0 0.0 0.00 0.12 0.12 42 1008.7
20260830040011 65 221 0.0 0.0 0.00 0.12 0.12 38 1008.4
20260830034517 67 221 0.0 0.0 0.00 0.12 0.12 36 1008.2
20260830033010 68 221 0.0 1.0 0.00 0.12 0.12 34 1007.9
20260830031510 69 221 0.0 0.0 0.00 0.12 0.12 32 1007.7
20260830030009 71 221 0.0 1.0 0.00 0.12 0.12 30 1007.7
20260830024513 73 221 0.0 1.0 0.01 0.12 0.12 29 1007.7
20260830023008 75 221 0.0 1.0 0.01 0.12 0.12 27 1007.6
20260830021506 77 221 0.0 0.0 0.01 0.12 0.12 26 1007.6
20260830020012 80 221 0.0 1.0 0.01 0.12 0.12 21 1007.5